[[{"header":{"parameterUnit":"m.s-1","parameterCategory":2,"la1":30.2991,"la2":30.254,"lo1":-89.0895,"lo2":-89.0444,"dy":0.0017,"dx":0.0017,"nx":28,"ny":28,"refTime":"2024-03-18T03:00:00:Z","depth":"0","parameterNumber":2,"parameterNumberName":"U-component_of_CURRENTS"},"data":[0,0,0,0,0,0,0,0,0,0,0,0,0,0,0,0,0,0,0,0,0,0,0,0,0,0,0,0,0,0,0,0,0,0,0,0,0,0,0,0,0,0,0,0,0,0,0,0,0,0,0,0,0,0,0,0,0,0,0.2858,0.2858,0,0.2878,0.2878,0.2878,0.2883,0.2883,0.2883,0.2884,0.2884,0.2884,0.2884,0,0,0,0,0,0,0,0,0,0,0,0,0,0.284,0.284,0.2858,0.2858,0.2859,0.2878,0.2878,0.2878,0.2883,0.2883,0.2884,0.2884,0.2884,0.2884,0.2884,0,0,0,0,0,0,0,0,0,0,0,0,0,0.2851,0.284,0.2858,0.2865,0.2866,0.2878,0.2878,0.2878,0.2883,0.2883,0.2884,0.2884,0.2884,0.2884,0.2884,0.2882,0,0,0.2884,0.2884,0,0,0,0,0,0,0,0,0.285,0.2851,0.2863,0.2864,0.2866,0.288,0.2872,0.2879,0.2883,0.2875,0.2884,0.2884,0.2882,0.2882,0.2883,0.2882,0.2882,0.2884,0.2884,0.2884,0.2884,0,0,0,0,0,0,0,0.285,0.2851,0.2864,0.2864,0.2865,0.2873,0.2874,0.2873,0.2876,0.2876,0.2876,0.2882,0.2882,0.2884,0.2884,0.2882,0.2884,0.2884,0.2884,0.2884,0.2945,0.2947,0,0,0,0,0,0,0.285,0.285,0.2863,0.2865,0.286,0.2873,0.2874,0.2874,0.2876,0.2878,0.2881,0.2882,0.2884,0.2884,0.2884,0.2945,0.2884,0.2884,0.2884,0.2944,0.2946,0.2948,0,0,0,0,0,0,0.2849,0.2851,0.2862,0.2859,0.2862,0.2873,0.2872,0.2874,0.288,0.2881,0.2882,0.2886,0.2884,0.2884,0.2898,0.2943,0.2884,0.2884,0.2942,0.2944,0.2947,0.3028,0,0,0,0,0,0,0.2849,0.285,0.2847,0.2859,0.2862,0.288,0.2873,0.2874,0.2883,0.2884,0.2886,0.2886,0.2884,0.2899,0.2898,0.2942,0.2884,0.294,0.2943,0.2946,0.3023,0.3033,0.3041,0,0,0,0,0,0.2848,0.284,0.2847,0.2849,0.2858,0.288,0.2883,0.289,0.2884,0.2893,0.2897,0.2886,0.2919,0.29,0.2899,0.2944,0.2938,0.2942,0.2946,0.3019,0.3031,0.3041,0,0,0,0,0,0,0.2818,0.2841,0.2848,0.2844,0.2868,0.2882,0.2889,0.2892,0.2901,0.2903,0.2897,0.2898,0.2933,0.2921,0.29,0.2971,0.2931,0.2935,0.2987,0.2998,0.3007,0.3025,0.2884,0,0,0,0,0,0.2815,0.2822,0.2846,0.2845,0.286,0.2876,0.2883,0.2894,0.2905,0.2909,0.2911,0.2921,0.2948,0.2957,0.2969,0.2996,0.3015,0.3028,0.3037,0.3044,0.306,0.3128,0.3145,0.296,0.296,0.296,0,0,0.2798,0.2816,0.2815,0.2841,0.286,0.2895,0.2881,0.2902,0.2934,0.2907,0.2941,0.2949,0.2961,0.3005,0.302,0.3,0.3109,0.3049,0.3056,0.3067,0.3134,0.3152,0.3168,0.2962,0.2962,0.2962,0,0,0.2793,0.2794,0.2813,0.2841,0.2881,0.2901,0.291,0.2935,0.2951,0.2982,0.2986,0.3019,0.3035,0.3069,0.3086,0.3148,0.3154,0.3151,0.3214,0.328,0.3296,0.3311,0.3367,0.3386,0.3157,0.3157,0.3157,0,0.2776,0.2808,0.2821,0.2861,0.2891,0.2908,0.295,0.2972,0.2997,0.3026,0.3004,0.3074,0.3075,0.3157,0.3184,0.3172,0.3205,0.3171,0.3294,0.3308,0.3322,0.3376,0.3395,0.3161,0.3161,0.316,0.316,0,0.2802,0.2833,0.2849,0.2913,0.2943,0.2978,0.3023,0.3056,0.3073,0.31,0.317,0.3177,0.3224,0.3235,0.3229,0.3333,0.3325,0.3298,0.3268,0.3346,0.3397,0.3416,0.3168,0.3166,0.3165,0.3164,0,0,0.2757,0.2851,0.2858,0.2906,0.2978,0.3006,0.3076,0.315,0.3199,0.323,0.3305,0.3351,0.3355,0.3375,0.3377,0.3431,0.3551,0.341,0.3412,0.347,0.3705,0.3669,0.3686,0.355,0.3553,0.3556,0.3706,0,0.2784,0.2868,0.2908,0.299,0.3042,0.3095,0.3155,0.3221,0.3269,0.3341,0.3385,0.3442,0.341,0.3437,0.3494,0.3536,0.3604,0.3513,0.3618,0.3621,0.3583,0.3708,0.3527,0.3643,0.3725,0.3728,0.373,0,0.2809,0.2867,0.295,0.3053,0.3079,0.3122,0.3233,0.3292,0.34,0.3439,0.3515,0.3543,0.3642,0.3588,0.3723,0.3669,0.3704,0.3726,0.3732,0.3684,0.3621,0.3577,0.3674,0.3601,0.3759,0.3757,0.3755,0,0.2794,0.2897,0.2967,0.3002,0.3113,0.3158,0.3216,0.3318,0.3379,0.3506,0.3566,0.3668,0.3726,0.3797,0.3848,0.3801,0.399,0.3924,0.393,0.3926,0.3786,0.3765,0.3826,0.4036,0.4035,0.4035,0.4035,0,0.2817,0.2872,0.296,0.2999,0.3068,0.3151,0.3232,0.3307,0.3426,0.3509,0.3606,0.3695,0.3783,0.389,0.3918,0.4001,0.4054,0.3981,0.3981,0.3809,0.3788,0.3725,0.3687,0.4041,0.4039,0.4038,0.4037,0,0.2798,0.2864,0.2939,0.304,0.3064,0.3111,0.3218,0.3281,0.3402,0.3522,0.3571,0.3745,0.3893,0.3981,0.4109,0.4088,0.4059,0.4176,0.3968,0.3941,0.3836,0.3808,0.3748,0.3633,0.4205,0.4205,0.4206,0,0.2804,0.2841,0.2931,0.2958,0.2999,0.3071,0.3117,0.3244,0.3314,0.3545,0.3603,0.3804,0.3927,0.4122,0.4135,0.4213,0.4094,0.4076,0.3947,0.385,0.382,0.3667,0.3562,0.3796,0.3793,0.379,0.3788,0,0.2799,0.2822,0.2872,0.2923,0.2966,0.3019,0.3098,0.3151,0.3318,0.3422,0.3601,0.3734,0.3944,0.3962,0.4074,0.4083,0.3875,0.4025,0.3979,0.357,0.3354,0.3234,0.368,0.3765,0.3767,0.3769,0.377,0.3771,0.2773,0.2789,0.2842,0.2876,0.2919,0.2959,0.2963,0.3067,0.3161,0.3285,0.3484,0.3595,0.3734,0.3871,0.3873,0.3768,0.3753,0.3639,0.3638,0.3511,0.3321,0.3727,0.3774,0.3776,0.3778,0.378,0.3781,0,0.2734,0.2757,0.2792,0.2823,0.2817,0.2872,0.2933,0.2917,0.2964,0.312,0.3226,0.3346,0.339,0.3489,0.3504,0.3402,0.3201,0.3314,0.3047,0.298,0.3399,0.33,0.318,0.318,0.318,0.318,0.318,0.318,0.2721,0.2724,0.2731,0.27,0.2709,0.266,0.2661,0.2666,0.2732,0.2778,0.2828,0.2951,0.3215,0.3331,0.3264,0.3162,0.2924,0.2778,0.2806,0.3105,0.3133,0.316,0.306,0.2891,0.2891,0.2211,0.2206,0.2202]},{"header":{"parameterUnit":"m.s-1","parameterCategory":2,"la1":30.2991,"la2":30.254,"lo1":-89.0895,"lo2":-89.0444,"dy":0.0017,"dx":0.0017,"nx":28,"ny":28,"refTime":"2024-03-18T03:00:00:Z","depth":"0","parameterNumber":3,"parameterNumberName":"V-component_of_CURRENTS"},"data":[0,0,0,0,0,0,0,0,0,0,0,0,0,0,0,0,0,0,0,0,0,0,0,0,0,0,0,0,0,0,0,0,0,0,0,0,0,0,0,0,0,0,0,0,0,0,0,0,0,0,0,0,0,0,0,0,0,0,-0.0371,-0.0372,0,-0.0433,-0.0434,-0.0434,-0.0484,-0.0485,-0.0485,-0.0485,-0.0602,-0.0605,-0.0607,0,0,0,0,0,0,0,0,0,0,0,0,0,-0.035,-0.035,-0.0371,-0.0372,-0.0372,-0.0433,-0.0434,-0.0435,-0.0484,-0.0485,-0.0485,-0.0486,-0.0601,-0.0604,-0.0608,0,0,0,0,0,0,0,0,0,0,0,0,0,-0.0381,-0.035,-0.0371,-0.0403,-0.0407,-0.0432,-0.0434,-0.0435,-0.0484,-0.0485,-0.0485,-0.0486,-0.06,-0.0604,-0.0608,-0.0622,0,0,-0.0621,-0.0622,0,0,0,0,0,0,0,0,-0.0379,-0.0382,-0.0398,-0.0401,-0.0405,-0.045,-0.0469,-0.05,-0.0484,-0.0456,-0.0485,-0.0486,-0.0555,-0.0563,-0.0574,-0.0628,-0.0633,-0.0621,-0.0623,-0.0625,-0.0626,0,0,0,0,0,0,0,-0.0377,-0.038,-0.0397,-0.0398,-0.0403,-0.0433,-0.0438,-0.0475,-0.0504,-0.0459,-0.0462,-0.0466,-0.0557,-0.057,-0.0578,-0.0635,-0.0621,-0.0625,-0.0627,-0.0629,-0.072,-0.072,0,0,0,0,0,0,-0.0363,-0.0378,-0.0395,-0.0399,-0.0392,-0.0432,-0.0438,-0.0436,-0.0503,-0.0512,-0.0466,-0.0468,-0.0563,-0.0573,-0.0582,-0.0614,-0.0625,-0.0629,-0.0631,-0.072,-0.072,-0.072,0,0,0,0,0,0,-0.0362,-0.0364,-0.0393,-0.0389,-0.0395,-0.0432,-0.043,-0.0437,-0.0449,-0.0507,-0.0518,-0.0469,-0.0564,-0.0576,-0.0611,-0.0619,-0.0631,-0.0635,-0.0721,-0.072,-0.072,-0.0671,0,0,0,0,0,0,-0.0361,-0.0363,-0.0357,-0.0388,-0.0394,-0.0403,-0.0429,-0.0438,-0.045,-0.0454,-0.0514,-0.0525,-0.0565,-0.0605,-0.0616,-0.0624,-0.0638,-0.0721,-0.0721,-0.072,-0.0673,-0.0669,-0.0666,0,0,0,0,0,-0.036,-0.0345,-0.0356,-0.0358,-0.0384,-0.0403,-0.0409,-0.0439,-0.0449,-0.0452,-0.0491,-0.0523,-0.0612,-0.0608,-0.0621,-0.0631,-0.0721,-0.0721,-0.072,-0.0674,-0.067,-0.0667,0,0,0,0,0,0,-0.0326,-0.035,-0.0362,-0.0353,-0.0375,-0.041,-0.0412,-0.0431,-0.0463,-0.0467,-0.0521,-0.0536,-0.0572,-0.0603,-0.0597,-0.0656,-0.0673,-0.0675,-0.0633,-0.063,-0.0627,-0.0592,-0.0641,0,0,0,0,0,-0.0316,-0.0316,-0.0343,-0.0336,-0.0342,-0.0375,-0.0386,-0.0406,-0.0437,-0.0451,-0.0491,-0.0536,-0.0581,-0.0605,-0.0646,-0.0675,-0.069,-0.069,-0.0686,-0.0683,-0.0664,-0.0705,-0.0704,-0.072,-0.072,-0.072,0,0,-0.0299,-0.0313,-0.0312,-0.0329,-0.0347,-0.0349,-0.0383,-0.0393,-0.0398,-0.0459,-0.0476,-0.0526,-0.0585,-0.0621,-0.064,-0.0649,-0.0684,-0.0683,-0.068,-0.0662,-0.0705,-0.0703,-0.0702,-0.072,-0.072,-0.072,0,0,-0.0267,-0.0278,-0.0268,-0.0282,-0.0304,-0.0326,-0.0324,-0.0356,-0.0374,-0.0397,-0.0447,-0.0494,-0.0552,-0.06,-0.0633,-0.0634,-0.0665,-0.0651,-0.0609,-0.0651,-0.0649,-0.0648,-0.0648,-0.0647,-0.065,-0.065,-0.065,0,-0.0245,-0.0238,-0.0268,-0.0262,-0.0264,-0.0309,-0.0295,-0.0321,-0.0361,-0.037,-0.0394,-0.0484,-0.0542,-0.0591,-0.0596,-0.0628,-0.0637,-0.062,-0.0645,-0.0645,-0.0645,-0.0645,-0.0645,-0.0647,-0.0647,-0.0648,-0.0648,0,-0.021,-0.0205,-0.0197,-0.0206,-0.0212,-0.0209,-0.0242,-0.0253,-0.028,-0.0309,-0.0354,-0.0434,-0.0484,-0.0522,-0.0562,-0.0594,-0.0595,-0.0636,-0.0651,-0.064,-0.0641,-0.0642,-0.0644,-0.0645,-0.0645,-0.0646,0,0,-0.016,-0.017,-0.0167,-0.0157,-0.0181,-0.0176,-0.0183,-0.0199,-0.0192,-0.0255,-0.0255,-0.0358,-0.0398,-0.0435,-0.0503,-0.0546,-0.0563,-0.0581,-0.0584,-0.0571,-0.0616,-0.0587,-0.0585,-0.0609,-0.061,-0.061,-0.0609,0,-0.0123,-0.0094,-0.0113,-0.0082,-0.0066,-0.0101,-0.0093,-0.0115,-0.0148,-0.0161,-0.0253,-0.0286,-0.0367,-0.0391,-0.0449,-0.0531,-0.0565,-0.0557,-0.0635,-0.0636,-0.0606,-0.0586,-0.0552,-0.0547,-0.061,-0.0611,-0.0611,0,-0.0081,-0.0068,-0.0026,-0.0008,-0.0002,0.0013,0.0025,0.0019,-0.0021,-0.0049,-0.0106,-0.0169,-0.0243,-0.0314,-0.0437,-0.0424,-0.0505,-0.0574,-0.0577,-0.0564,-0.0609,-0.0574,-0.0546,-0.0738,-0.0613,-0.0612,-0.0612,0,-0.0023,-0.0004,0.0036,0.0041,0.0052,0.0074,0.008,0.0061,0.0077,0.0024,0.0032,-0.0074,-0.0104,-0.0234,-0.037,-0.0403,-0.0486,-0.0558,-0.0605,-0.0603,-0.0595,-0.0591,-0.0754,-0.0639,-0.0639,-0.0639,-0.0639,0,0.0025,0.0057,0.0073,0.0096,0.0162,0.0144,0.0205,0.0185,0.0183,0.0233,0.0099,0.0121,-0.0084,-0.0157,-0.0312,-0.0432,-0.0443,-0.0574,-0.0601,-0.0574,-0.0569,-0.0752,-0.0858,-0.0639,-0.0639,-0.0639,-0.0639,0,0.0082,0.0086,0.0139,0.0172,0.0193,0.0243,0.0301,0.0341,0.0316,0.0377,0.0372,0.0284,0.0198,0.0006,-0.0177,-0.0328,-0.0563,-0.0519,-0.0446,-0.0465,-0.0699,-0.0801,-0.0957,-0.102,-0.0572,-0.0571,-0.057,0,0.0112,0.0145,0.021,0.0261,0.0283,0.0352,0.041,0.041,0.0466,0.05,0.0549,0.0484,0.0487,0.0229,-0.0057,-0.0297,-0.0502,-0.0443,-0.0522,-0.0686,-0.0822,-0.0912,-0.0962,-0.0487,-0.0486,-0.0485,-0.0484,0,0.0174,0.0199,0.0249,0.0357,0.0432,0.0515,0.0601,0.0674,0.0706,0.0782,0.0883,0.0894,0.0651,0.0423,0.0067,-0.0118,-0.0561,-0.0429,-0.0639,-0.0787,-0.0857,-0.0938,-0.0492,-0.0475,-0.0476,-0.0476,-0.0477,-0.0477,0.0229,0.0284,0.0361,0.0468,0.0559,0.0685,0.0783,0.0895,0.1041,0.1184,0.1165,0.1223,0.0829,0.0356,0.0074,-0.0459,-0.0492,-0.0644,-0.0754,-0.0831,-0.09,-0.0403,-0.04,-0.04,-0.0401,-0.0401,-0.0401,0,0.0307,0.0371,0.047,0.0605,0.0727,0.0752,0.0919,0.1037,0.1256,0.1392,0.1504,0.1357,0.089,0.0371,-0.0353,-0.0739,-0.0889,-0.0957,-0.1111,-0.1147,-0.0738,-0.0744,-0.0766,-0.0766,-0.0766,-0.0766,-0.0766,-0.0765,0.0354,0.0464,0.0518,0.0733,0.0833,0.1005,0.1114,0.13,0.1437,0.1639,0.169,0.168,0.1271,-0.0031,-0.0937,-0.1137,-0.1419,-0.1465,-0.1618,-0.1388,-0.1369,-0.1351,-0.1385,-0.154,-0.1541,-0.1975,-0.1979,-0.1983]}],[{"header":{"parameterUnit":"m.s-1","parameterCategory":2,"la1":30.2991,"la2":30.254,"lo1":-89.0895,"lo2":-89.0444,"dy":0.0017,"dx":0.0017,"nx":28,"ny":28,"refTime":"2024-03-18T03:00:00:Z","depth":"2","parameterNumber":2,"parameterNumberName":"U-component_of_CURRENTS"},"data":[0,0,0,0,0,0,0,0,0,0,0,0,0,0,0,0,0,0,0,0,0,0,0,0,0,0,0,0,0,0,0,0,0,0,0,0,0,0,0,0,0,0,0,0,0,0,0,0,0,0,0,0,0,0,0,0,0,0,0.2442,0.2442,0,0.2467,0.2467,0.2467,0.2493,0.2494,0.2494,0.2495,0.2525,0.2525,0.2526,0,0,0,0,0,0,0,0,0,0,0,0,0,0.2407,0.2407,0.2442,0.2442,0.2443,0.2467,0.2467,0.2467,0.2493,0.2494,0.2494,0.2495,0.2525,0.2525,0.2526,0,0,0,0,0,0,0,0,0,0,0,0,0,0.2425,0.2407,0.2442,0.246,0.2462,0.2467,0.2467,0.2468,0.2493,0.2494,0.2495,0.2495,0.2525,0.2525,0.2526,0.2514,0,0,0.2527,0.2528,0,0,0,0,0,0,0,0,0.2424,0.2426,0.2457,0.2459,0.2461,0.2479,0.2466,0.2484,0.2493,0.248,0.2495,0.2496,0.2511,0.2512,0.2513,0.2516,0.2517,0.2528,0.2528,0.2528,0.2528,0,0,0,0,0,0,0,0.2422,0.2425,0.245,0.2457,0.246,0.2463,0.2467,0.2469,0.249,0.2481,0.2483,0.2488,0.2512,0.2513,0.2514,0.2517,0.2528,0.2528,0.2528,0.2528,0.2604,0.2606,0,0,0,0,0,0,0.2422,0.2424,0.245,0.2451,0.2445,0.2464,0.2467,0.2471,0.249,0.2493,0.2487,0.2489,0.2511,0.2514,0.2515,0.2599,0.2528,0.2529,0.2529,0.2602,0.2604,0.2606,0,0,0,0,0,0,0.2421,0.2424,0.2449,0.2439,0.2443,0.2464,0.2468,0.2471,0.2487,0.2495,0.2499,0.2501,0.2512,0.2515,0.254,0.2596,0.2529,0.2529,0.26,0.2603,0.2605,0.2704,0,0,0,0,0,0,0.242,0.2423,0.2431,0.2439,0.2443,0.2471,0.2467,0.2471,0.2489,0.2492,0.2507,0.251,0.2513,0.254,0.2541,0.2596,0.253,0.2598,0.2602,0.2605,0.2698,0.2709,0.2719,0,0,0,0,0,0.2418,0.2423,0.2431,0.2435,0.2452,0.2472,0.2475,0.249,0.2489,0.2505,0.2516,0.2511,0.2562,0.2541,0.2542,0.2599,0.2597,0.2601,0.2604,0.2694,0.2707,0.2718,0,0,0,0,0,0,0.2403,0.2426,0.2436,0.2445,0.2468,0.2477,0.2492,0.2496,0.2515,0.2522,0.2521,0.2525,0.2572,0.2563,0.254,0.2629,0.2582,0.2587,0.265,0.2663,0.2673,0.2684,0.253,0,0,0,0,0,0.2405,0.2419,0.2441,0.245,0.2466,0.248,0.249,0.2504,0.2518,0.2528,0.2538,0.2556,0.2585,0.2605,0.2618,0.2658,0.2664,0.2697,0.2707,0.2716,0.2726,0.2809,0.2829,0.2619,0.2619,0.2619,0,0,0.2398,0.2414,0.242,0.2449,0.2467,0.2499,0.2489,0.2515,0.2551,0.2527,0.2576,0.2585,0.26,0.2655,0.2676,0.2659,0.2772,0.2721,0.2729,0.2734,0.2815,0.2836,0.2854,0.2621,0.2621,0.262,0,0,0.2401,0.2413,0.2437,0.2462,0.25,0.2515,0.2526,0.2552,0.2582,0.2619,0.2625,0.2663,0.2691,0.2727,0.2746,0.2814,0.2817,0.2827,0.29,0.2981,0.2999,0.3015,0.302,0.3037,0.2841,0.2841,0.2841,0,0.2399,0.2428,0.2446,0.2481,0.251,0.2526,0.2566,0.2595,0.2627,0.2663,0.2649,0.2723,0.273,0.2817,0.2852,0.2841,0.2867,0.2854,0.2997,0.3013,0.3028,0.303,0.3046,0.2846,0.2846,0.2845,0.2845,0,0.2427,0.2456,0.2473,0.2528,0.2561,0.2595,0.2644,0.2684,0.2711,0.274,0.2823,0.2837,0.2886,0.2905,0.2902,0.3023,0.2997,0.2995,0.2969,0.3056,0.305,0.3066,0.2854,0.2852,0.285,0.2849,0,0,0.2409,0.2482,0.2489,0.2529,0.2594,0.2622,0.2699,0.2774,0.283,0.2873,0.2952,0.3011,0.3021,0.3042,0.3054,0.3128,0.3243,0.3123,0.3124,0.3133,0.339,0.3307,0.3315,0.3291,0.3295,0.3298,0.3332,0,0.2433,0.2503,0.2539,0.2609,0.2654,0.2706,0.2769,0.2841,0.2903,0.2979,0.3031,0.3098,0.3076,0.3115,0.3188,0.3227,0.3295,0.323,0.3299,0.33,0.3223,0.3335,0.3091,0.3099,0.3347,0.335,0.3352,0,0.2454,0.2502,0.2579,0.2665,0.2691,0.2736,0.2854,0.2916,0.3028,0.308,0.3164,0.3196,0.3296,0.327,0.339,0.3359,0.339,0.3413,0.3415,0.3318,0.3249,0.3058,0.3117,0.3377,0.3375,0.3373,0.3371,0,0.2442,0.2528,0.2593,0.2622,0.272,0.2777,0.2836,0.2948,0.3018,0.3157,0.3218,0.3319,0.3379,0.3453,0.3487,0.3467,0.3609,0.3574,0.3519,0.3509,0.3302,0.3268,0.3686,0.3686,0.3686,0.3686,0.3686,0,0.2448,0.2498,0.259,0.2626,0.2696,0.2779,0.2873,0.2951,0.3077,0.3157,0.3267,0.3344,0.3446,0.3524,0.354,0.357,0.365,0.3552,0.3541,0.3323,0.3293,0.3533,0.3515,0.3687,0.3687,0.3686,0.3686,0,0.2416,0.248,0.255,0.2659,0.269,0.2743,0.2868,0.2937,0.3069,0.3184,0.3236,0.3393,0.349,0.3556,0.3664,0.3627,0.3666,0.366,0.3359,0.3314,0.3485,0.3471,0.359,0.3588,0.3586,0.3585,0.3584,0,0.2413,0.2444,0.255,0.2583,0.2631,0.2717,0.2773,0.2911,0.2984,0.3193,0.3237,0.3398,0.3458,0.3565,0.3574,0.3587,0.365,0.3348,0.327,0.3512,0.349,0.3478,0.3467,0.3009,0.3003,0.2998,0.2994,0,0.2391,0.2424,0.2473,0.2546,0.2606,0.2657,0.275,0.2795,0.2959,0.3046,0.3156,0.3231,0.3375,0.3293,0.3351,0.3322,0.3321,0.3251,0.363,0.3077,0.297,0.2945,0.2953,0.2952,0.2956,0.2959,0.2962,0.2963,0.2365,0.2375,0.2443,0.249,0.2548,0.2575,0.2579,0.2665,0.2728,0.2814,0.2967,0.2992,0.3069,0.3031,0.2958,0.2921,0.3137,0.2984,0.2996,0.3015,0.2948,0.2846,0.2787,0.279,0.2792,0.2795,0.2797,0,0.2322,0.2343,0.2387,0.2423,0.2421,0.2503,0.254,0.2497,0.2484,0.2604,0.265,0.25,0.2486,0.2563,0.2462,0.2473,0.2432,0.2354,0.2276,0.2322,0.2362,0.2259,0.1916,0.1913,0.191,0.1907,0,0,0.2305,0.2311,0.2313,0.2277,0.2305,0.227,0.2256,0.219,0.2212,0.2165,0.2174,0.2371,0.2499,0.2169,0.2145,0.2008,0.2135,0.1931,0.265,0.2606,0.2641,0.2753,0.2651,0,0,0,0,0]},{"header":{"parameterUnit":"m.s-1","parameterCategory":2,"la1":30.2991,"la2":30.254,"lo1":-89.0895,"lo2":-89.0444,"dy":0.0017,"dx":0.0017,"nx":28,"ny":28,"refTime":"2024-03-18T03:00:00:Z","depth":"2","parameterNumber":3,"parameterNumberName":"V-component_of_CURRENTS"},"data":[0,0,0,0,0,0,0,0,0,0,0,0,0,0,0,0,0,0,0,0,0,0,0,0,0,0,0,0,0,0,0,0,0,0,0,0,0,0,0,0,0,0,0,0,0,0,0,0,0,0,0,0,0,0,0,0,0,0,0.0001,0.0001,0,-0.005,-0.0051,-0.0052,-0.0102,-0.0102,-0.0103,-0.0103,-0.0205,-0.0208,-0.021,0,0,0,0,0,0,0,0,0,0,0,0,0,0.0024,0.0024,0.0001,0.0001,0.0,-0.005,-0.0051,-0.0052,-0.0102,-0.0102,-0.0103,-0.0103,-0.0205,-0.0207,-0.021,0,0,0,0,0,0,0,0,0,0,0,0,0,-0.0004,0.0024,0.0001,-0.0029,-0.0032,-0.005,-0.0051,-0.0052,-0.0102,-0.0102,-0.0103,-0.0104,-0.0204,-0.0207,-0.021,-0.0218,0,0,-0.0221,-0.0222,0,0,0,0,0,0,0,0,-0.0003,-0.0005,-0.0024,-0.0027,-0.0031,-0.0068,-0.008,-0.0109,-0.0101,-0.0078,-0.0103,-0.0104,-0.0162,-0.0169,-0.018,-0.0223,-0.0227,-0.0221,-0.0223,-0.0225,-0.0226,0,0,0,0,0,0,0,-0.0001,-0.0004,-0.0021,-0.0025,-0.0029,-0.0051,-0.0056,-0.0086,-0.0118,-0.008,-0.0083,-0.0085,-0.0165,-0.0176,-0.0183,-0.0229,-0.0221,-0.0224,-0.0226,-0.0228,-0.03,-0.03,0,0,0,0,0,0,0.0012,-0.0002,-0.002,-0.0023,-0.0016,-0.005,-0.0056,-0.0057,-0.0117,-0.0125,-0.0084,-0.0087,-0.017,-0.0178,-0.0186,-0.0208,-0.0225,-0.0228,-0.023,-0.03,-0.03,-0.03,0,0,0,0,0,0,0.0013,0.0011,-0.0018,-0.0012,-0.0017,-0.005,-0.0051,-0.0058,-0.0071,-0.0119,-0.013,-0.0091,-0.0171,-0.0182,-0.0211,-0.0212,-0.023,-0.0233,-0.03,-0.03,-0.03,-0.0246,0,0,0,0,0,0,0.0014,0.0012,0.0013,-0.0011,-0.0017,-0.0026,-0.0051,-0.0058,-0.007,-0.0075,-0.0128,-0.0138,-0.0172,-0.0205,-0.0214,-0.0217,-0.0235,-0.03,-0.03,-0.03,-0.0248,-0.0244,-0.024,0,0,0,0,0,0.0015,0.0023,0.0014,0.0012,-0.0013,-0.0026,-0.0031,-0.0059,-0.007,-0.0074,-0.0107,-0.0137,-0.021,-0.0208,-0.0218,-0.0222,-0.03,-0.03,-0.03,-0.0249,-0.0245,-0.024,0,0,0,0,0,0,0.0034,0.0018,0.0007,0.001,-0.0006,-0.0034,-0.0036,-0.0053,-0.0082,-0.0087,-0.0133,-0.0145,-0.0169,-0.0202,-0.0198,-0.0242,-0.0261,-0.0263,-0.0219,-0.0215,-0.0211,-0.018,-0.0238,0,0,0,0,0,0.0041,0.0042,0.0021,0.0024,0.0019,-0.0007,-0.0016,-0.0034,-0.006,-0.0073,-0.011,-0.0147,-0.0175,-0.0199,-0.0228,-0.0254,-0.0274,-0.0264,-0.026,-0.0257,-0.0239,-0.0288,-0.0287,-0.0299,-0.0299,-0.0299,0,0,0.0049,0.0042,0.0041,0.0028,0.0015,0.0021,-0.0015,-0.0023,-0.0022,-0.008,-0.0093,-0.0132,-0.0176,-0.0202,-0.0217,-0.0232,-0.026,-0.0257,-0.0253,-0.0236,-0.0287,-0.0286,-0.0285,-0.0298,-0.0298,-0.0298,0,0,0.0075,0.0061,0.0074,0.0066,0.0052,0.0039,0.004,0.0012,-0.0006,-0.0023,-0.0062,-0.0097,-0.0144,-0.0178,-0.0199,-0.0192,-0.0232,-0.0209,-0.0175,-0.0223,-0.0223,-0.0222,-0.0225,-0.0225,-0.0216,-0.0216,-0.0216,0,0.0085,0.0103,0.0075,0.0088,0.0093,0.0054,0.0074,0.0052,0.0016,0.0008,-0.0019,-0.0076,-0.0128,-0.0148,-0.0155,-0.0183,-0.0203,-0.0189,-0.0218,-0.0218,-0.0219,-0.0222,-0.0223,-0.0214,-0.0214,-0.0214,-0.0214,0,0.0123,0.0138,0.0147,0.0155,0.0152,0.0162,0.0136,0.0124,0.0099,0.0075,0.005,-0.0017,-0.005,-0.0082,-0.0121,-0.0149,-0.0157,-0.02,-0.0226,-0.0214,-0.0218,-0.022,-0.021,-0.0211,-0.0212,-0.0212,0,0,0.0149,0.0171,0.0175,0.02,0.0191,0.0198,0.0199,0.0195,0.0208,0.0151,0.016,0.0085,0.0044,0.0018,-0.0042,-0.0097,-0.0129,-0.0152,-0.0156,-0.0147,-0.0204,-0.022,-0.0224,-0.0187,-0.0188,-0.0188,-0.0197,0,0.0192,0.0244,0.0236,0.0288,0.0317,0.029,0.0304,0.0288,0.0261,0.0254,0.018,0.0159,0.0083,0.0061,-0.0002,-0.0089,-0.0135,-0.012,-0.0222,-0.0224,-0.0236,-0.0228,-0.02,-0.0208,-0.0199,-0.02,-0.02,0,0.024,0.0271,0.033,0.0376,0.0385,0.0405,0.0428,0.0431,0.0402,0.0379,0.0339,0.0277,0.0212,0.013,0.0006,0.0018,-0.0084,-0.016,-0.0164,-0.0197,-0.0245,-0.0224,-0.0212,-0.0204,-0.0204,-0.0203,-0.0203,0,0.0293,0.0342,0.0398,0.0411,0.0446,0.0467,0.0482,0.0471,0.049,0.0453,0.0463,0.0374,0.0342,0.0204,0.0043,0.0017,-0.0094,-0.0151,-0.0249,-0.025,-0.0253,-0.0253,-0.0248,-0.0248,-0.0248,-0.0248,-0.0248,0,0.0358,0.0402,0.043,0.0464,0.0538,0.053,0.0596,0.0591,0.0597,0.0645,0.0532,0.0551,0.035,0.0258,0.0093,-0.0063,-0.0055,-0.0225,-0.0259,-0.0231,-0.023,-0.0256,-0.0256,-0.0249,-0.0249,-0.0249,-0.0249,0,0.0418,0.0434,0.0505,0.055,0.0571,0.0622,0.0684,0.0728,0.0717,0.0777,0.0769,0.0687,0.057,0.0376,0.0167,0.0022,-0.0146,-0.0214,-0.0143,-0.017,-0.0275,-0.0273,-0.0306,-0.0307,-0.0307,-0.0308,-0.0308,0,0.0456,0.0497,0.0571,0.0621,0.0648,0.0718,0.0773,0.0788,0.0845,0.0876,0.092,0.0819,0.077,0.0479,0.0192,-0.0071,-0.0129,-0.0218,-0.0281,-0.0254,-0.0284,-0.0281,-0.0278,-0.0249,-0.0248,-0.0248,-0.0248,0,0.0527,0.0548,0.0608,0.0709,0.0779,0.0869,0.0951,0.1016,0.1053,0.1101,0.115,0.1104,0.0829,0.0557,0.0186,0.0008,-0.0176,-0.0226,-0.0222,-0.0246,-0.0204,-0.0232,-0.023,-0.0248,-0.0248,-0.0248,-0.0248,-0.0248,0.0578,0.0634,0.0708,0.0809,0.0892,0.101,0.1097,0.1183,0.1288,0.1356,0.1317,0.1251,0.0947,0.0464,0.0147,-0.0182,-0.0173,-0.0291,-0.029,-0.0289,-0.0288,-0.0251,-0.0301,-0.0301,-0.0301,-0.0301,-0.0302,0,0.0645,0.0706,0.08,0.0925,0.1026,0.1057,0.1209,0.1287,0.1418,0.1458,0.147,0.1186,0.0872,0.0517,0.0022,-0.0269,-0.0291,-0.035,-0.0322,-0.0319,-0.0317,-0.0319,-0.0339,-0.034,-0.0341,-0.0342,0,0,0.0683,0.0783,0.0832,0.1012,0.1097,0.1241,0.133,0.1432,0.1494,0.1529,0.1484,0.1384,0.0969,0.0606,0.0211,-0.0075,-0.0127,-0.012,-0.0055,0.0028,0.0033,-0.0246,-0.024,0,0,0,0,0]}],[{"header":{"parameterUnit":"m.s-1","parameterCategory":2,"la1":30.2991,"la2":30.254,"lo1":-89.0895,"lo2":-89.0444,"dy":0.0017,"dx":0.0017,"nx":28,"ny":28,"refTime":"2024-03-18T03:00:00:Z","depth":"4","parameterNumber":2,"parameterNumberName":"U-component_of_CURRENTS"},"data":[0,0,0,0,0,0,0,0,0,0,0,0,0,0,0,0,0,0,0,0,0,0,0,0,0,0,0,0,0,0,0,0,0,0,0,0,0,0,0,0,0,0,0,0,0,0,0,0,0,0,0,0,0,0,0,0,0,0,0.1487,0.1488,0,0.1537,0.1537,0.1537,0.1584,0.1585,0.1585,0.1586,0.1656,0.1658,0.1659,0,0,0,0,0,0,0,0,0,0,0,0,0,0.1421,0.1422,0.1487,0.1488,0.1489,0.1536,0.1537,0.1538,0.1584,0.1585,0.1586,0.1586,0.1656,0.1657,0.1659,0,0,0,0,0,0,0,0,0,0,0,0,0,0.1457,0.1422,0.1487,0.1519,0.1522,0.1536,0.1537,0.1538,0.1584,0.1585,0.1586,0.1587,0.1656,0.1657,0.1659,0.1649,0,0,0.1665,0.1666,0,0,0,0,0,0,0,0,0.1455,0.1459,0.1513,0.1516,0.152,0.1556,0.154,0.1577,0.1584,0.1559,0.1586,0.1587,0.1625,0.1629,0.1634,0.1653,0.1656,0.1665,0.1666,0.1667,0.1667,0,0,0,0,0,0,0,0.1452,0.1457,0.1506,0.1514,0.1518,0.1526,0.1532,0.1547,0.1585,0.1561,0.1565,0.1572,0.1627,0.1632,0.1636,0.1657,0.1665,0.1666,0.1668,0.1668,0.1752,0.1753,0,0,0,0,0,0,0.1448,0.1455,0.1504,0.1507,0.1491,0.1527,0.1533,0.1543,0.1584,0.1592,0.1571,0.1574,0.1629,0.1634,0.1639,0.1713,0.1667,0.1669,0.167,0.1751,0.1753,0.1754,0,0,0,0,0,0,0.1447,0.1452,0.1502,0.1483,0.149,0.1527,0.1537,0.1543,0.1584,0.1592,0.16,0.161,0.163,0.1636,0.1676,0.1713,0.1669,0.1671,0.175,0.1752,0.1753,0.1808,0,0,0,0,0,0,0.1445,0.1451,0.1472,0.1483,0.1491,0.1533,0.1536,0.1543,0.1585,0.159,0.1627,0.1632,0.1631,0.1674,0.1678,0.1715,0.1672,0.1748,0.1751,0.1753,0.1805,0.1812,0.1817,0,0,0,0,0,0.1442,0.1459,0.1473,0.148,0.1514,0.1534,0.1539,0.1567,0.1586,0.1608,0.1631,0.1633,0.169,0.1676,0.1681,0.1719,0.1747,0.175,0.1752,0.1802,0.181,0.1817,0,0,0,0,0,0,0.1444,0.1466,0.1481,0.1507,0.1531,0.1543,0.1569,0.1587,0.1622,0.1637,0.1645,0.1652,0.17,0.17,0.1683,0.1749,0.1721,0.1724,0.1757,0.1764,0.177,0.1769,0.1674,0,0,0,0,0,0.1453,0.1476,0.1494,0.1521,0.1534,0.1559,0.1579,0.1597,0.162,0.1639,0.1661,0.1685,0.1708,0.1729,0.1743,0.178,0.179,0.1808,0.1814,0.182,0.1822,0.186,0.187,0.1762,0.1762,0.1762,0,0,0.1463,0.1479,0.1495,0.1525,0.1547,0.1566,0.1575,0.1612,0.1637,0.164,0.169,0.1709,0.1721,0.1761,0.1783,0.1771,0.1859,0.1823,0.1827,0.1827,0.1864,0.1874,0.1884,0.1764,0.1764,0.1763,0,0,0.1474,0.151,0.1524,0.1546,0.1583,0.1597,0.1615,0.1645,0.1673,0.1716,0.1724,0.1765,0.1802,0.1816,0.1828,0.1877,0.1888,0.189,0.1926,0.1964,0.1973,0.1981,0.2025,0.2037,0.1896,0.1896,0.1896,0,0.1489,0.1507,0.1534,0.155,0.1575,0.1614,0.1634,0.1663,0.1704,0.1735,0.1743,0.1811,0.1827,0.1872,0.1891,0.1893,0.1917,0.1898,0.1973,0.1981,0.1988,0.2031,0.2043,0.1899,0.1899,0.1899,0.1898,0,0.149,0.1524,0.1539,0.1573,0.1603,0.1633,0.1669,0.1711,0.1755,0.1785,0.1854,0.1872,0.1919,0.193,0.1929,0.1992,0.1994,0.1974,0.1955,0.2003,0.2044,0.2056,0.1903,0.1902,0.1901,0.1901,0,0,0.1474,0.1528,0.1538,0.156,0.1621,0.1638,0.1696,0.1752,0.1801,0.1852,0.1913,0.1959,0.1991,0.2004,0.2014,0.2042,0.2124,0.2039,0.2039,0.2083,0.2223,0.2098,0.2098,0.2123,0.2125,0.2126,0.2237,0,0.1473,0.15,0.1535,0.1581,0.16,0.1663,0.1715,0.1777,0.1839,0.1907,0.1954,0.2015,0.2013,0.205,0.2083,0.2117,0.2155,0.2096,0.2168,0.217,0.2053,0.2107,0.2132,0.2246,0.2249,0.2251,0.2252,0,0.1453,0.148,0.1518,0.1589,0.1607,0.165,0.1747,0.18,0.1906,0.196,0.2036,0.2075,0.2152,0.2127,0.2225,0.2194,0.2218,0.223,0.2234,0.2101,0.2065,0.2183,0.2273,0.2271,0.2269,0.2268,0.2267,0,0.1403,0.1466,0.15,0.1523,0.1609,0.1659,0.1722,0.1829,0.1888,0.2008,0.2067,0.2154,0.2222,0.226,0.2311,0.2283,0.2398,0.2362,0.2269,0.2262,0.2318,0.2307,0.2416,0.2416,0.2416,0.2416,0.2415,0,0.1368,0.1398,0.1488,0.1504,0.1571,0.1648,0.1738,0.1813,0.193,0.2007,0.2104,0.2162,0.2261,0.2333,0.2348,0.2357,0.2444,0.2285,0.228,0.234,0.2331,0.2327,0.2315,0.242,0.2419,0.2418,0.2417,0,0.1303,0.136,0.1402,0.1504,0.1548,0.1601,0.1741,0.1795,0.1929,0.2029,0.2074,0.2211,0.231,0.2381,0.2463,0.2407,0.2417,0.2393,0.2481,0.2478,0.2248,0.2238,0.2299,0.2295,0.2292,0.229,0.2288,0,0.1264,0.1281,0.1393,0.1429,0.1485,0.1583,0.1649,0.1786,0.1846,0.2036,0.2067,0.2214,0.229,0.2316,0.2396,0.2429,0.2392,0.239,0.2281,0.2246,0.2237,0.2231,0.2225,0.2283,0.2282,0.2281,0.2281,0,0.1193,0.125,0.1293,0.1368,0.1439,0.1505,0.1612,0.1643,0.1806,0.1936,0.2014,0.2068,0.2178,0.2239,0.229,0.2297,0.2383,0.2358,0.2363,0.226,0.2228,0.222,0.2217,0.227,0.2272,0.2273,0.2273,0,0.1153,0.1164,0.1232,0.1293,0.1372,0.1406,0.1472,0.1549,0.1628,0.1833,0.186,0.2016,0.2158,0.2173,0.2215,0.2224,0.2179,0.2095,0.2113,0.2125,0.2014,0.1944,0.1903,0,0,0,0,0,0.11,0.1105,0.1147,0.1196,0.1269,0.1319,0.1436,0.1505,0.1664,0.1672,0.1761,0.1848,0.1925,0.2007,0.198,0.2138,0.2185,0.2098,0.2096,0.2212,0.2224,0.2108,0,0,0,0,0,0,0.1061,0.1098,0.1112,0.1113,0.1132,0.1194,0.1266,0.1369,0.1385,0.1555,0.1604,0.1739,0.1838,0.1921,0.1945,0.1971,0.1933,0.22,0.2196,0.2205,0.2216,0.2226,0.2111,0,0,0,0,0]},{"header":{"parameterUnit":"m.s-1","parameterCategory":2,"la1":30.2991,"la2":30.254,"lo1":-89.0895,"lo2":-89.0444,"dy":0.0017,"dx":0.0017,"nx":28,"ny":28,"refTime":"2024-03-18T03:00:00:Z","depth":"4","parameterNumber":3,"parameterNumberName":"V-component_of_CURRENTS"},"data":[0,0,0,0,0,0,0,0,0,0,0,0,0,0,0,0,0,0,0,0,0,0,0,0,0,0,0,0,0,0,0,0,0,0,0,0,0,0,0,0,0,0,0,0,0,0,0,0,0,0,0,0,0,0,0,0,0,0,0.0137,0.0137,0,0.0106,0.0105,0.0105,0.0084,0.0084,0.0084,0.0084,0.003,0.0028,0.0027,0,0,0,0,0,0,0,0,0,0,0,0,0,0.015,0.015,0.0137,0.0137,0.0136,0.0106,0.0105,0.0105,0.0084,0.0084,0.0084,0.0084,0.003,0.0029,0.0027,0,0,0,0,0,0,0,0,0,0,0,0,0,0.0133,0.015,0.0137,0.0123,0.0122,0.0106,0.0105,0.0105,0.0084,0.0084,0.0084,0.0084,0.0031,0.0029,0.0027,0.0015,0,0,0.002,0.0019,0,0,0,0,0,0,0,0,0.0134,0.0133,0.0125,0.0124,0.0122,0.01,0.009,0.0074,0.0084,0.0097,0.0084,0.0084,0.0052,0.0048,0.0041,0.0013,0.001,0.002,0.0019,0.0018,0.0017,0,0,0,0,0,0,0,0.0135,0.0134,0.0124,0.0125,0.0123,0.0109,0.0106,0.0087,0.0074,0.0096,0.0095,0.0093,0.0051,0.0043,0.004,0.001,0.002,0.0018,0.0017,0.0016,-0.0011,-0.0011,0,0,0,0,0,0,0.0143,0.0135,0.0125,0.0123,0.0129,0.0109,0.0106,0.0106,0.0075,0.007,0.0093,0.0092,0.0047,0.0042,0.0038,0.0051,0.0018,0.0016,0.0015,-0.0012,-0.0011,-0.0011,0,0,0,0,0,0,0.0143,0.0142,0.0126,0.0129,0.0126,0.0109,0.0109,0.0106,0.0102,0.0073,0.0068,0.0093,0.0046,0.004,0.0031,0.0047,0.0015,0.0013,-0.0012,-0.0012,-0.0011,0.0059,0,0,0,0,0,0,0.0144,0.0143,0.0146,0.0129,0.0126,0.0126,0.0109,0.0105,0.0101,0.0099,0.0071,0.0066,0.0046,0.0034,0.0029,0.0044,0.0012,-0.0013,-0.0012,-0.0011,0.0056,0.0062,0.0067,0,0,0,0,0,0.0145,0.0151,0.0147,0.0145,0.0131,0.0126,0.0123,0.011,0.0101,0.0105,0.0088,0.0067,0.0036,0.0033,0.0027,0.0041,-0.0014,-0.0012,-0.0011,0.0053,0.0061,0.0067,0,0,0,0,0,0,0.0156,0.0149,0.0144,0.0147,0.0142,0.0123,0.0125,0.0114,0.0102,0.0101,0.0072,0.0066,0.0066,0.0041,0.0038,0.0036,0.0008,0.0008,0.0059,0.0066,0.0072,0.0083,0.001,0,0,0,0,0,0.0161,0.0166,0.0155,0.0158,0.0159,0.0143,0.0139,0.013,0.0117,0.0111,0.0093,0.0074,0.0064,0.0056,0.0041,0.0036,0.0002,0.0041,0.0047,0.0052,0.0057,0.0023,0.0026,-0.0007,-0.0007,-0.0007,0,0,0.0165,0.0163,0.0164,0.0162,0.0156,0.0168,0.014,0.0139,0.015,0.0107,0.0114,0.0093,0.0068,0.0069,0.0066,0.0051,0.0041,0.0053,0.0058,0.006,0.0024,0.0027,0.003,-0.0006,-0.0006,-0.0006,0,0,0.0185,0.0177,0.0193,0.0193,0.0191,0.0184,0.0187,0.0174,0.017,0.0171,0.0148,0.0137,0.0118,0.0106,0.0097,0.0122,0.0074,0.0115,0.0151,0.0119,0.0121,0.0123,0.0078,0.0075,0.0116,0.0116,0.0116,0,0.0191,0.0213,0.0196,0.0215,0.0224,0.0197,0.0221,0.0213,0.0198,0.0198,0.0184,0.0161,0.0139,0.0143,0.0153,0.0136,0.0102,0.0131,0.0127,0.0128,0.0128,0.0081,0.0077,0.012,0.0119,0.0119,0.0119,0,0.0227,0.0246,0.0256,0.0276,0.028,0.0294,0.0286,0.0286,0.0277,0.0265,0.0263,0.0231,0.0216,0.0209,0.019,0.0187,0.0157,0.014,0.0112,0.0136,0.0084,0.0079,0.0125,0.0123,0.0122,0.0122,0,0,0.0241,0.0277,0.0282,0.0308,0.0316,0.0325,0.0343,0.0351,0.0364,0.034,0.0352,0.0332,0.0301,0.0289,0.0258,0.0231,0.0205,0.0191,0.0188,0.015,0.012,0.0098,0.009,0.0186,0.0185,0.0185,0.008,0,0.028,0.0337,0.034,0.0392,0.0423,0.041,0.0433,0.0431,0.042,0.042,0.038,0.0378,0.0335,0.033,0.0296,0.0231,0.0194,0.0234,0.0098,0.0094,0.0076,0.0085,0.0184,0.0076,0.0074,0.0073,0.0073,0,0.0321,0.0357,0.0421,0.0466,0.0477,0.0502,0.053,0.0544,0.0529,0.0519,0.0495,0.0453,0.0414,0.0376,0.0267,0.0293,0.0213,0.0156,0.015,0.0103,0.0064,0.0046,0.0062,0.0063,0.0064,0.0064,0.0065,0,0.0357,0.0412,0.047,0.0486,0.0529,0.0556,0.0576,0.0578,0.0597,0.0579,0.0581,0.0517,0.0491,0.0389,0.0263,0.0263,0.0134,0.0116,0.0018,0.0014,0.0034,0.0033,0.0036,0.0036,0.0037,0.0037,0.0037,0,0.0402,0.0447,0.0495,0.053,0.0594,0.0605,0.0664,0.0666,0.0677,0.0699,0.0635,0.0626,0.0494,0.0399,0.0278,0.0129,0.0137,0.0024,-0.001,0.0064,0.0068,0.0029,0.0029,0.0033,0.0034,0.0035,0.0035,0,0.0433,0.0467,0.0536,0.0596,0.0618,0.0663,0.0726,0.0761,0.0764,0.0788,0.0785,0.0705,0.0577,0.0428,0.0256,0.0155,0.0012,-0.0045,0.0038,0.001,-0.0093,-0.0088,-0.0164,-0.0166,-0.0167,-0.0168,-0.0169,0,0.0456,0.0497,0.0582,0.0624,0.0657,0.0726,0.0774,0.0804,0.0837,0.0831,0.084,0.0733,0.0656,0.0398,0.0237,-0.0003,-0.0036,-0.0112,-0.0095,-0.0086,-0.0112,-0.0104,-0.0098,-0.0171,-0.0171,-0.0172,-0.0172,0,0.0492,0.0523,0.0578,0.0667,0.0731,0.0802,0.087,0.0898,0.0925,0.0929,0.0876,0.0742,0.0594,0.0391,0.0205,0.0035,-0.006,-0.0126,-0.0124,-0.0109,-0.0096,-0.0118,-0.011,-0.0177,-0.0176,-0.0176,-0.0175,0,0.0514,0.055,0.0622,0.0696,0.0778,0.0848,0.0888,0.0921,0.0949,0.0936,0.0914,0.0754,0.0666,0.041,0.0238,0.0068,0.0023,-0.0025,-0.003,-0.0027,0.0045,0.0084,0.0031,0,0,0,0,0,0.0527,0.0564,0.0639,0.0721,0.0805,0.0853,0.0933,0.0965,0.0989,0.0956,0.0936,0.0793,0.0536,0.0429,0.0252,0.0203,-0.0011,-0.0009,-0.0069,-0.0202,-0.0196,-0.0137,0,0,0,0,0,0,0.0534,0.0602,0.0634,0.0728,0.0784,0.0875,0.093,0.0952,0.0935,0.0931,0.0797,0.0741,0.0491,0.0628,0.0243,0.0193,0.013,-0.0125,-0.0129,-0.0205,-0.02,-0.0196,-0.0133,0,0,0,0,0]}]]